| time (UTC) | temp F | wind direction | speed MPH | gust MPH | rain 1hr in | rain 24hr in | rain mn in | humidity % | barometer mb |
| 20260831015306 | 72 | 294 | 4.0 | 8.0 | 0.00 | 0.00 | 0.00 | 72 | 1016.0 |
| 20260831015202 | 72 | 310 | 5.0 | 14.0 | 0.00 | 0.00 | 0.00 | 75 | 1015.1 |
| 20260831014805 | 72 | 121 | 0.0 | 2.0 | 0.00 | 0.00 | 0.00 | 70 | 1015.9 |
| 20260831014702 | 72 | 323 | 0.0 | 0.0 | 0.00 | 0.00 | 0.00 | 74 | 1015.0 |
| 20260831014300 | 72 | 64 | 0.0 | 1.0 | 0.00 | 0.00 | 0.00 | 72 | 1015.6 |
| 20260831014202 | 72 | 301 | 0.0 | 1.0 | 0.00 | 0.00 | 0.00 | 75 | 1014.8 |
| 20260831013757 | 71 | 163 | 1.0 | 6.0 | 0.00 | 0.00 | 0.00 | 72 | 1015.6 |
| 20260831013703 | 72 | 309 | 1.0 | 5.0 | 0.00 | 0.00 | 0.00 | 74 | 1014.8 |
| 20260831013256 | 71 | 177 | 1.0 | 1.0 | 0.00 | 0.00 | 0.00 | 73 | 1015.4 |
| 20260831013202 | 72 | 190 | 0.0 | 0.0 | 0.00 | 0.00 | 0.00 | 74 | 1014.7 |
| 20260831012751 | 71 | 184 | 1.0 | 1.0 | 0.00 | 0.00 | 0.00 | 73 | 1015.5 |
| 20260831012702 | 72 | 229 | 0.0 | 0.0 | 0.00 | 0.00 | 0.00 | 74 | 1014.7 |
| 20260831012246 | 71 | 140 | 0.0 | 0.0 | 0.00 | 0.00 | 0.00 | 73 | 1015.4 |
| 20260831011745 | 71 | 142 | 0.0 | 0.0 | 0.00 | 0.00 | 0.00 | 72 | 1015.4 |
| 20260831011702 | 72 | 250 | 0.0 | 0.0 | 0.00 | 0.00 | 0.00 | 73 | 1014.6 |
| 20260831011241 | 71 | 69 | 0.0 | 1.0 | 0.00 | 0.00 | 0.00 | 72 | 1015.2 |
| 20260831011203 | 72 | 250 | 0.0 | 0.0 | 0.00 | 0.00 | 0.00 | 73 | 1014.5 |
| 20260831010737 | 71 | 142 | 0.0 | 0.0 | 0.00 | 0.00 | 0.00 | 72 | 1015.2 |
| 20260831010703 | 72 | 250 | 0.0 | 0.0 | 0.00 | 0.00 | 0.00 | 73 | 1014.4 |
| 20260831010231 | 71 | 148 | 0.0 | 0.0 | 0.00 | 0.00 | 0.00 | 73 | 1015.1 |
| 20260831010202 | 73 | 296 | 0.0 | 0.0 | 0.00 | 0.00 | 0.00 | 73 | 1014.3 |
| 20260831005727 | 71 | 114 | 0.0 | 0.0 | 0.00 | 0.00 | 0.00 | 73 | 1015.1 |
| 20260831005222 | 71 | 142 | 0.0 | 0.0 | 0.00 | 0.00 | 0.00 | 73 | 1015.1 |
| 20260831005203 | 73 | 196 | 0.0 | 0.0 | 0.00 | 0.00 | 0.00 | 72 | 1014.3 |
| 20260831004717 | 72 | 129 | 0.0 | 0.0 | 0.00 | 0.00 | 0.00 | 73 | 1015.0 |
| 20260831004703 | 73 | 195 | 0.0 | 0.0 | 0.00 | 0.00 | 0.00 | 72 | 1014.2 |
| 20260831004213 | 72 | 135 | 0.0 | 0.0 | 0.00 | 0.00 | 0.00 | 73 | 1014.8 |
| 20260831004202 | 73 | 192 | 0.0 | 0.0 | 0.00 | 0.00 | 0.00 | 72 | 1014.0 |
| 20260831003708 | 72 | 115 | 0.0 | 0.0 | 0.00 | 0.00 | 0.00 | 72 | 1014.7 |
| 20260831003702 | 74 | 192 | 0.0 | 0.0 | 0.00 | 0.00 | 0.00 | 72 | 1014.1 |
| 20260831003205 | 73 | 110 | 0.0 | 0.0 | 0.00 | 0.00 | 0.00 | 71 | 1014.7 |
| 20260831003203 | 74 | 190 | 0.0 | 0.0 | 0.00 | 0.00 | 0.00 | 71 | 1014.0 |
| 20260831002703 | 73 | 134 | 0.0 | 0.0 | 0.00 | 0.00 | 0.00 | 70 | 1014.6 |
| 20260831002202 | 74 | 188 | 0.0 | 0.0 | 0.00 | 0.00 | 0.00 | 70 | 1013.9 |
| 20260831002158 | 73 | 154 | 0.0 | 0.0 | 0.00 | 0.00 | 0.00 | 69 | 1014.7 |
| 20260831001702 | 74 | 286 | 0.0 | 0.0 | 0.00 | 0.00 | 0.00 | 70 | 1013.8 |
| 20260831001655 | 73 | 87 | 0.0 | 0.0 | 0.00 | 0.00 | 0.00 | 67 | 1014.7 |
| 20260831001202 | 74 | 326 | 0.0 | 0.0 | 0.00 | 0.00 | 0.00 | 69 | 1013.8 |
| 20260831001154 | 73 | 173 | 0.0 | 0.0 | 0.00 | 0.00 | 0.00 | 67 | 1014.8 |
| 20260831000702 | 74 | 205 | 0.0 | 0.0 | 0.00 | 0.00 | 0.00 | 69 | 1013.7 |
| 20260831000652 | 73 | 116 | 0.0 | 0.0 | 0.00 | 0.00 | 0.00 | 67 | 1014.3 |
| 20260831000204 | 74 | 224 | 0.0 | 0.0 | 0.00 | 0.00 | 0.00 | 69 | 1013.5 |
| 20260831000151 | 73 | 97 | 0.0 | 0.0 | 0.00 | 0.00 | 0.00 | 67 | 1014.3 |
| 20260830235702 | 74 | 207 | 0.0 | 0.0 | 0.00 | 0.00 | 0.00 | 69 | 1013.4 |
| 20260830235650 | 73 | 128 | 0.0 | 0.0 | 0.00 | 0.00 | 0.00 | 67 | 1014.3 |
| 20260830235203 | 74 | 227 | 0.0 | 2.0 | 0.00 | 0.00 | 0.00 | 68 | 1013.4 |
| 20260830235145 | 74 | 131 | 0.0 | 0.0 | 0.00 | 0.00 | 0.00 | 66 | 1014.2 |
| 20260830234640 | 74 | 109 | 0.0 | 0.0 | 0.00 | 0.00 | 0.00 | 66 | 1014.0 |
| 20260830234203 | 75 | 246 | 0.0 | 0.0 | 0.00 | 0.00 | 0.00 | 68 | 1013.4 |
| 20260830234136 | 74 | 138 | 0.0 | 0.0 | 0.00 | 0.00 | 0.00 | 65 | 1014.3 |
| 20260830233702 | 75 | 221 | 0.0 | 0.0 | 0.00 | 0.00 | 0.00 | 67 | 1013.4 |
| 20260830233632 | 74 | 123 | 0.0 | 0.0 | 0.00 | 0.00 | 0.00 | 65 | 1014.0 |
| 20260830233202 | 75 | 221 | 0.0 | 0.0 | 0.00 | 0.00 | 0.00 | 67 | 1013.3 |
| 20260830233127 | 74 | 96 | 0.0 | 1.0 | 0.00 | 0.00 | 0.00 | 64 | 1014.0 |
| 20260830232702 | 75 | 265 | 0.0 | 0.0 | 0.00 | 0.00 | 0.00 | 67 | 1013.4 |
| 20260830232623 | 75 | 118 | 0.0 | 1.0 | 0.00 | 0.00 | 0.00 | 64 | 1014.1 |
| 20260830232202 | 75 | 298 | 0.0 | 0.0 | 0.00 | 0.00 | 0.00 | 67 | 1013.4 |
| 20260830232119 | 75 | 346 | 0.0 | 2.0 | 0.00 | 0.00 | 0.00 | 63 | 1014.2 |
| 20260830231702 | 75 | 297 | 0.0 | 0.0 | 0.00 | 0.00 | 0.00 | 66 | 1013.3 |
| 20260830231614 | 75 | 304 | 2.0 | 2.0 | 0.00 | 0.00 | 0.00 | 63 | 1014.2 |
| 20260830231202 | 75 | 127 | 0.0 | 0.0 | 0.00 | 0.00 | 0.00 | 66 | 1013.3 |
| 20260830231113 | 75 | 86 | 1.0 | 1.0 | 0.00 | 0.00 | 0.00 | 63 | 1014.2 |
| 20260830230703 | 75 | 260 | 0.0 | 0.0 | 0.00 | 0.00 | 0.00 | 65 | 1013.3 |
| 20260830230609 | 75 | 121 | 1.0 | 2.0 | 0.00 | 0.00 | 0.00 | 62 | 1014.2 |
| 20260830230202 | 76 | 207 | 0.0 | 0.0 | 0.00 | 0.00 | 0.00 | 65 | 1013.4 |
| 20260830230104 | 75 | 188 | 1.0 | 2.0 | 0.00 | 0.00 | 0.00 | 62 | 1014.1 |
| 20260830225703 | 76 | 249 | 0.0 | 2.0 | 0.00 | 0.00 | 0.00 | 65 | 1013.3 |
| 20260830225559 | 75 | 123 | 0.0 | 1.0 | 0.00 | 0.00 | 0.00 | 62 | 1014.2 |
| 20260830225202 | 76 | 289 | 0.0 | 1.0 | 0.00 | 0.00 | 0.00 | 64 | 1013.5 |
| 20260830225053 | 75 | 148 | 1.0 | 2.0 | 0.00 | 0.00 | 0.00 | 61 | 1014.2 |
| 20260830224702 | 76 | 193 | 0.0 | 1.0 | 0.00 | 0.00 | 0.00 | 64 | 1013.5 |
| 20260830224551 | 75 | 121 | 0.0 | 3.0 | 0.00 | 0.00 | 0.00 | 61 | 1014.3 |
| 20260830224202 | 76 | 226 | 0.0 | 1.0 | 0.00 | 0.00 | 0.00 | 64 | 1013.5 |
| 20260830224048 | 76 | 48 | 2.0 | 2.0 | 0.00 | 0.00 | 0.00 | 60 | 1014.4 |
| 20260830223545 | 76 | 106 | 0.0 | 2.0 | 0.00 | 0.00 | 0.00 | 60 | 1014.4 |
| 20260830223202 | 76 | 290 | 0.0 | 0.0 | 0.00 | 0.00 | 0.00 | 63 | 1013.6 |
| 20260830223045 | 76 | 80 | 0.0 | 2.0 | 0.00 | 0.00 | 0.00 | 59 | 1014.6 |
| 20260830222702 | 76 | 216 | 0.0 | 0.0 | 0.00 | 0.00 | 0.00 | 62 | 1013.7 |
| 20260830222539 | 76 | 143 | 1.0 | 1.0 | 0.00 | 0.00 | 0.00 | 59 | 1014.4 |
| 20260830222202 | 77 | 167 | 0.0 | 1.0 | 0.00 | 0.00 | 0.00 | 62 | 1013.7 |
| 20260830222035 | 76 | 350 | 2.0 | 2.0 | 0.00 | 0.00 | 0.00 | 58 | 1014.4 |
| 20260830221531 | 76 | 97 | 0.0 | 2.0 | 0.00 | 0.00 | 0.00 | 57 | 1014.7 |
| 20260830221027 | 76 | 99 | 1.0 | 3.0 | 0.00 | 0.00 | 0.00 | 58 | 1014.7 |
| 20260830220703 | 77 | 218 | 1.0 | 5.0 | 0.00 | 0.00 | 0.00 | 60 | 1013.7 |
| 20260830220526 | 77 | 99 | 1.0 | 2.0 | 0.00 | 0.00 | 0.00 | 57 | 1014.7 |
| 20260830220025 | 77 | 174 | 1.0 | 2.0 | 0.00 | 0.00 | 0.00 | 57 | 1014.6 |
| 20260830215703 | 78 | 210 | 1.0 | 5.0 | 0.00 | 0.00 | 0.00 | 59 | 1013.8 |
| 20260830215520 | 77 | 266 | 1.0 | 2.0 | 0.00 | 0.00 | 0.00 | 56 | 1014.5 |
| 20260830215202 | 78 | 299 | 0.0 | 5.0 | 0.00 | 0.00 | 0.00 | 58 | 1013.8 |
| 20260830215015 | 77 | 261 | 1.0 | 4.0 | 0.00 | 0.00 | 0.00 | 56 | 1014.5 |
| 20260830214703 | 78 | 229 | 0.0 | 3.0 | 0.00 | 0.00 | 0.00 | 59 | 1013.8 |
| 20260830214510 | 78 | 143 | 0.0 | 4.0 | 0.00 | 0.00 | 0.00 | 56 | 1014.4 |
| 20260830214203 | 79 | 310 | 0.0 | 1.0 | 0.00 | 0.00 | 0.00 | 58 | 1013.7 |
| 20260830214010 | 78 | 32 | 1.0 | 6.0 | 0.00 | 0.00 | 0.00 | 55 | 1014.3 |
| 20260830213703 | 79 | 141 | 0.0 | 2.0 | 0.00 | 0.00 | 0.00 | 58 | 1013.7 |
| 20260830213504 | 78 | 81 | 1.0 | 4.0 | 0.00 | 0.00 | 0.00 | 54 | 1014.4 |
| 20260830213000 | 79 | 24 | 1.0 | 3.0 | 0.00 | 0.00 | 0.00 | 54 | 1014.6 |
| 20260830212702 | 80 | 295 | 0.0 | 0.0 | 0.00 | 0.00 | 0.00 | 58 | 1013.6 |
| 20260830212455 | 79 | 186 | 0.0 | 3.0 | 0.00 | 0.00 | 0.00 | 55 | 1014.7 |
| 20260830211955 | 79 | 307 | 1.0 | 2.0 | 0.00 | 0.00 | 0.00 | 54 | 1014.4 |
| 20260830211702 | 80 | 286 | 0.0 | 0.0 | 0.00 | 0.00 | 0.00 | 56 | 1013.6 |
| 20260830211449 | 80 | 174 | 1.0 | 6.0 | 0.00 | 0.00 | 0.00 | 52 | 1014.4 |
| 20260830211203 | 80 | 329 | 0.0 | 3.0 | 0.00 | 0.00 | 0.00 | 55 | 1013.8 |
| 20260830210945 | 80 | 49 | 1.0 | 7.0 | 0.00 | 0.00 | 0.00 | 50 | 1014.6 |
| 20260830210445 | 81 | 140 | 0.0 | 1.0 | 0.00 | 0.00 | 0.00 | 48 | 1014.5 |
| 20260830210202 | 81 | 25 | 0.0 | 0.0 | 0.00 | 0.00 | 0.00 | 53 | 1013.8 |
| 20260830205942 | 81 | 249 | 2.0 | 6.0 | 0.00 | 0.00 | 0.00 | 49 | 1014.7 |
| 20260830205703 | 81 | 256 | 0.0 | 0.0 | 0.00 | 0.00 | 0.00 | 53 | 1013.9 |
| 20260830205442 | 81 | 180 | 0.0 | 2.0 | 0.00 | 0.00 | 0.00 | 51 | 1014.6 |
| 20260830205203 | 81 | 268 | 0.0 | 2.0 | 0.00 | 0.00 | 0.00 | 54 | 1013.9 |
| 20260830204937 | 81 | 165 | 2.0 | 4.0 | 0.00 | 0.00 | 0.00 | 50 | 1014.7 |
| 20260830204702 | 82 | 231 | 0.0 | 5.0 | 0.00 | 0.00 | 0.00 | 53 | 1013.9 |
| 20260830204436 | 82 | 134 | 3.0 | 6.0 | 0.00 | 0.00 | 0.00 | 50 | 1014.6 |
| 20260830204202 | 82 | 201 | 0.0 | 3.0 | 0.00 | 0.00 | 0.00 | 54 | 1013.9 |
| 20260830203931 | 82 | 186 | 2.0 | 3.0 | 0.00 | 0.00 | 0.00 | 49 | 1014.8 |
| 20260830203428 | 83 | 149 | 1.0 | 3.0 | 0.00 | 0.00 | 0.00 | 50 | 1014.8 |
| 20260830203202 | 82 | 199 | 0.0 | 0.0 | 0.00 | 0.00 | 0.00 | 57 | 1013.9 |
| 20260830202927 | 82 | 217 | 2.0 | 6.0 | 0.00 | 0.00 | 0.00 | 53 | 1014.9 |
| 20260830202423 | 82 | 60 | 1.0 | 3.0 | 0.00 | 0.00 | 0.00 | 53 | 1014.9 |
| 20260830202202 | 82 | 211 | 0.0 | 2.0 | 0.00 | 0.00 | 0.00 | 58 | 1014.1 |
| 20260830201919 | 82 | 271 | 4.0 | 8.0 | 0.00 | 0.00 | 0.00 | 51 | 1014.8 |
| 20260830201702 | 81 | 306 | 0.0 | 1.0 | 0.00 | 0.00 | 0.00 | 58 | 1014.1 |
| 20260830201417 | 83 | 9 | 2.0 | 3.0 | 0.00 | 0.00 | 0.00 | 52 | 1014.8 |
| 20260830201202 | 81 | 214 | 0.0 | 0.0 | 0.00 | 0.00 | 0.00 | 60 | 1014.1 |
| 20260830200913 | 82 | 201 | 1.0 | 2.0 | 0.00 | 0.00 | 0.00 | 52 | 1015.0 |
| 20260830200413 | 82 | 260 | 2.0 | 3.0 | 0.00 | 0.00 | 0.00 | 51 | 1014.8 |
| 20260830200203 | 80 | 190 | 0.0 | 0.0 | 0.00 | 0.00 | 0.00 | 60 | 1014.2 |
| 20260830195908 | 80 | 203 | 1.0 | 3.0 | 0.00 | 0.00 | 0.00 | 53 | 1015.0 |
| 20260830195703 | 79 | 263 | 0.0 | 0.0 | 0.00 | 0.00 | 0.00 | 61 | 1014.3 |
| 20260830195408 | 81 | 176 | 2.0 | 3.0 | 0.00 | 0.00 | 0.00 | 54 | 1015.2 |
| 20260830195202 | 79 | 311 | 0.0 | 0.0 | 0.00 | 0.00 | 0.00 | 61 | 1014.3 |
| 20260830194906 | 80 | 163 | 3.0 | 4.0 | 0.00 | 0.00 | 0.00 | 53 | 1015.2 |
| 20260830194703 | 78 | 292 | 0.0 | 2.0 | 0.00 | 0.00 | 0.00 | 62 | 1014.4 |
| 20260830194401 | 80 | 123 | 0.0 | 2.0 | 0.00 | 0.00 | 0.00 | 55 | 1015.3 |
| 20260830194203 | 78 | 240 | 0.0 | 0.0 | 0.00 | 0.00 | 0.00 | 65 | 1014.5 |
| 20260830193901 | 78 | 169 | 0.0 | 0.0 | 0.00 | 0.00 | 0.00 | 62 | 1015.2 |
| 20260830193702 | 78 | 337 | 0.0 | 0.0 | 0.00 | 0.00 | 0.00 | 67 | 1014.6 |
| 20260830193400 | 77 | 156 | 0.0 | 1.0 | 0.00 | 0.00 | 0.00 | 63 | 1015.4 |
| 20260830193203 | 78 | 337 | 0.0 | 0.0 | 0.00 | 0.00 | 0.00 | 68 | 1014.6 |
| 20260830192855 | 76 | 167 | 0.0 | 1.0 | 0.00 | 0.00 | 0.00 | 67 | 1015.5 |
| 20260830192355 | 76 | 179 | 0.0 | 1.0 | 0.00 | 0.00 | 0.00 | 66 | 1015.4 |
| 20260830192202 | 78 | 337 | 0.0 | 0.0 | 0.00 | 0.00 | 0.00 | 65 | 1014.9 |
| 20260830191851 | 77 | 161 | 1.0 | 1.0 | 0.00 | 0.00 | 0.00 | 64 | 1015.7 |
| 20260830191702 | 79 | 337 | 0.0 | 0.0 | 0.00 | 0.00 | 0.00 | 65 | 1014.9 |
| 20260830191351 | 78 | 138 | 0.0 | 1.0 | 0.00 | 0.00 | 0.00 | 63 | 1015.6 |
| 20260830190847 | 78 | 326 | 2.0 | 2.0 | 0.00 | 0.00 | 0.00 | 55 | 1015.6 |
| 20260830190702 | 79 | 337 | 0.0 | 0.0 | 0.00 | 0.00 | 0.00 | 62 | 1015.0 |
| 20260830190342 | 78 | 97 | 0.0 | 0.0 | 0.00 | 0.00 | 0.00 | 60 | 1015.8 |
| 20260830190203 | 79 | 337 | 0.0 | 0.0 | 0.00 | 0.00 | 0.00 | 63 | 1015.0 |
| 20260830185840 | 78 | 158 | 0.0 | 0.0 | 0.00 | 0.00 | 0.00 | 60 | 1016.1 |
| 20260830185336 | 79 | 160 | 0.0 | 0.0 | 0.00 | 0.00 | 0.00 | 60 | 1016.0 |
| 20260830185202 | 79 | 332 | 0.0 | 0.0 | 0.00 | 0.00 | 0.00 | 61 | 1015.1 |
| 20260830184831 | 79 | 35 | 0.0 | 0.0 | 0.00 | 0.00 | 0.00 | 53 | 1015.9 |
| 20260830184703 | 79 | 333 | 0.0 | 0.0 | 0.00 | 0.00 | 0.00 | 59 | 1015.2 |
| 20260830184330 | 79 | 232 | 1.0 | 2.0 | 0.00 | 0.00 | 0.00 | 54 | 1015.9 |
| 20260830184202 | 79 | 343 | 0.0 | 0.0 | 0.00 | 0.00 | 0.00 | 57 | 1015.2 |
| 20260830183830 | 79 | 137 | 0.0 | 3.0 | 0.00 | 0.00 | 0.00 | 52 | 1016.0 |
| 20260830183702 | 80 | 277 | 0.0 | 0.0 | 0.00 | 0.00 | 0.00 | 58 | 1015.3 |
| 20260830183325 | 80 | 47 | 0.0 | 2.0 | 0.00 | 0.00 | 0.00 | 52 | 1016.1 |
| 20260830183203 | 80 | 350 | 0.0 | 0.0 | 0.00 | 0.00 | 0.00 | 57 | 1015.4 |
| 20260830182820 | 80 | 124 | 1.0 | 3.0 | 0.00 | 0.00 | 0.00 | 51 | 1016.2 |
| 20260830182703 | 80 | 298 | 0.0 | 0.0 | 0.00 | 0.00 | 0.00 | 57 | 1015.5 |
| 20260830182316 | 80 | 230 | 2.0 | 3.0 | 0.00 | 0.00 | 0.00 | 51 | 1016.2 |
| 20260830181813 | 80 | 100 | 1.0 | 3.0 | 0.00 | 0.00 | 0.00 | 51 | 1016.3 |
| 20260830181308 | 79 | 133 | 0.0 | 2.0 | 0.00 | 0.00 | 0.00 | 54 | 1016.4 |
| 20260830181202 | 79 | 312 | 0.0 | 0.0 | 0.00 | 0.00 | 0.00 | 60 | 1015.7 |
| 20260830180807 | 78 | 277 | 1.0 | 2.0 | 0.00 | 0.00 | 0.00 | 55 | 1016.5 |
| 20260830180703 | 78 | 265 | 0.0 | 1.0 | 0.00 | 0.00 | 0.00 | 61 | 1015.7 |
| 20260830180302 | 78 | 182 | 2.0 | 3.0 | 0.00 | 0.00 | 0.00 | 57 | 1016.7 |
| 20260830180202 | 78 | 219 | 0.0 | 0.0 | 0.00 | 0.00 | 0.00 | 62 | 1015.9 |
| 20260830175801 | 78 | 169 | 1.0 | 2.0 | 0.00 | 0.00 | 0.00 | 59 | 1016.8 |
| 20260830175702 | 78 | 199 | 0.0 | 1.0 | 0.00 | 0.00 | 0.00 | 62 | 1016.0 |
| 20260830175256 | 78 | 209 | 2.0 | 2.0 | 0.00 | 0.00 | 0.00 | 56 | 1016.7 |
| 20260830175203 | 78 | 189 | 0.0 | 0.0 | 0.00 | 0.00 | 0.00 | 61 | 1016.1 |
| 20260830174756 | 78 | 119 | 1.0 | 2.0 | 0.00 | 0.00 | 0.00 | 55 | 1016.9 |
| 20260830174703 | 78 | 188 | 0.0 | 0.0 | 0.00 | 0.00 | 0.00 | 61 | 1016.2 |
| 20260830174252 | 78 | 156 | 0.0 | 4.0 | 0.00 | 0.00 | 0.00 | 56 | 1016.8 |
| 20260830174203 | 78 | 264 | 0.0 | 1.0 | 0.00 | 0.00 | 0.00 | 60 | 1016.2 |
| 20260830173751 | 78 | 138 | 1.0 | 4.0 | 0.00 | 0.00 | 0.00 | 56 | 1016.9 |
| 20260830173702 | 78 | 198 | 0.0 | 0.0 | 0.00 | 0.00 | 0.00 | 60 | 1016.1 |
| 20260830173247 | 78 | 152 | 1.0 | 3.0 | 0.00 | 0.00 | 0.00 | 56 | 1016.8 |
| 20260830172743 | 78 | 144 | 2.0 | 3.0 | 0.00 | 0.00 | 0.00 | 56 | 1017.1 |
| 20260830172702 | 78 | 189 | 0.0 | 5.0 | 0.00 | 0.00 | 0.00 | 59 | 1016.2 |
| 20260830172240 | 79 | 189 | 2.0 | 3.0 | 0.00 | 0.00 | 0.00 | 56 | 1016.8 |
| 20260830172202 | 78 | 309 | 0.0 | 3.0 | 0.00 | 0.00 | 0.00 | 60 | 1016.2 |
| 20260830171735 | 78 | 205 | 2.0 | 2.0 | 0.00 | 0.00 | 0.00 | 56 | 1017.2 |
| 20260830171230 | 78 | 133 | 1.0 | 2.0 | 0.00 | 0.00 | 0.00 | 56 | 1017.2 |
| 20260830171202 | 78 | 308 | 0.0 | 3.0 | 0.00 | 0.00 | 0.00 | 60 | 1016.3 |
| 20260830170725 | 78 | 286 | 2.0 | 4.0 | 0.00 | 0.00 | 0.00 | 55 | 1017.4 |
| 20260830170703 | 78 | 193 | 0.0 | 10.0 | 0.00 | 0.00 | 0.00 | 61 | 1016.4 |
| 20260830170224 | 79 | 167 | 2.0 | 3.0 | 0.00 | 0.00 | 0.00 | 55 | 1017.4 |
| 20260830170202 | 78 | 239 | 0.0 | 1.0 | 0.00 | 0.00 | 0.00 | 62 | 1016.4 |
| 20260830165723 | 77 | 129 | 1.0 | 2.0 | 0.00 | 0.00 | 0.00 | 57 | 1017.2 |
| 20260830165219 | 77 | 218 | 1.0 | 6.0 | 0.00 | 0.00 | 0.00 | 58 | 1017.2 |
| 20260830165202 | 77 | 183 | 0.0 | 7.0 | 0.00 | 0.00 | 0.00 | 62 | 1016.5 |
| 20260830164715 | 77 | 351 | 2.0 | 3.0 | 0.00 | 0.00 | 0.00 | 57 | 1017.3 |
| 20260830164702 | 77 | 247 | 0.0 | 0.0 | 0.00 | 0.00 | 0.00 | 62 | 1016.7 |
| 20260830164211 | 77 | 322 | 1.0 | 6.0 | 0.00 | 0.00 | 0.00 | 57 | 1017.6 |
| 20260830163708 | 77 | 205 | 2.0 | 4.0 | 0.00 | 0.00 | 0.00 | 59 | 1017.4 |
| 20260830163702 | 77 | 322 | 0.0 | 3.0 | 0.00 | 0.00 | 0.00 | 62 | 1016.6 |
| 20260830163203 | 77 | 225 | 2.0 | 7.0 | 0.00 | 0.00 | 0.00 | 58 | 1017.4 |
| 20260830162702 | 77 | 314 | 0.0 | 8.0 | 0.00 | 0.00 | 0.00 | 63 | 1016.7 |
| 20260830162657 | 77 | 195 | 2.0 | 2.0 | 0.00 | 0.00 | 0.00 | 57 | 1017.5 |
| 20260830162202 | 76 | 305 | 0.0 | 2.0 | 0.00 | 0.00 | 0.00 | 63 | 1016.7 |
| 20260830162153 | 77 | 295 | 4.0 | 7.0 | 0.00 | 0.00 | 0.00 | 57 | 1017.6 |
| 20260830161702 | 76 | 295 | 0.0 | 0.0 | 0.00 | 0.00 | 0.00 | 66 | 1016.8 |
| 20260830161648 | 76 | 296 | 1.0 | 2.0 | 0.00 | 0.00 | 0.00 | 59 | 1017.8 |
| 20260830161202 | 75 | 201 | 1.0 | 3.0 | 0.00 | 0.00 | 0.00 | 66 | 1016.8 |
| 20260830161142 | 76 | 141 | 1.0 | 3.0 | 0.00 | 0.00 | 0.00 | 60 | 1017.7 |
| 20260830160702 | 75 | 305 | 0.0 | 0.0 | 0.00 | 0.00 | 0.00 | 66 | 1016.7 |
| 20260830160639 | 74 | 204 | 1.0 | 2.0 | 0.00 | 0.00 | 0.00 | 62 | 1017.4 |
| 20260830160133 | 75 | 117 | 0.0 | 2.0 | 0.00 | 0.00 | 0.00 | 60 | 1017.4 |
| 20260830155702 | 75 | 328 | 0.0 | 0.0 | 0.00 | 0.00 | 0.00 | 64 | 1016.7 |
| 20260830155630 | 74 | 158 | 0.0 | 1.0 | 0.00 | 0.00 | 0.00 | 62 | 1017.6 |
| 20260830155203 | 76 | 268 | 0.0 | 0.0 | 0.00 | 0.00 | 0.00 | 62 | 1016.9 |
| 20260830155125 | 74 | 278 | 1.0 | 3.0 | 0.00 | 0.00 | 0.00 | 60 | 1017.7 |
| 20260830154703 | 76 | 306 | 0.0 | 10.0 | 0.00 | 0.00 | 0.00 | 61 | 1016.9 |
| 20260830154620 | 75 | 215 | 2.0 | 6.0 | 0.00 | 0.00 | 0.00 | 58 | 1017.7 |
| 20260830154202 | 77 | 303 | 0.0 | 0.0 | 0.00 | 0.00 | 0.00 | 61 | 1016.9 |
| 20260830154116 | 76 | 159 | 2.0 | 3.0 | 0.00 | 0.00 | 0.00 | 57 | 1017.8 |
| 20260830153702 | 77 | 254 | 0.0 | 0.0 | 0.00 | 0.00 | 0.00 | 61 | 1017.0 |
| 20260830153607 | 76 | 303 | 3.0 | 4.0 | 0.00 | 0.00 | 0.00 | 58 | 1017.8 |
| 20260830153203 | 77 | 271 | 0.0 | 3.0 | 0.00 | 0.00 | 0.00 | 61 | 1017.0 |
| 20260830153106 | 76 | 112 | 1.0 | 6.0 | 0.00 | 0.00 | 0.00 | 57 | 1017.8 |
| 20260830152601 | 77 | 173 | 3.0 | 4.0 | 0.00 | 0.00 | 0.00 | 55 | 1018.0 |
| 20260830152203 | 78 | 304 | 0.0 | 0.0 | 0.00 | 0.00 | 0.00 | 61 | 1017.0 |
| 20260830152059 | 78 | 261 | 1.0 | 3.0 | 0.00 | 0.00 | 0.00 | 57 | 1017.8 |
| 20260830151703 | 78 | 246 | 0.0 | 2.0 | 0.00 | 0.00 | 0.00 | 61 | 1017.2 |
| 20260830151559 | 77 | 223 | 1.0 | 2.0 | 0.00 | 0.00 | 0.00 | 55 | 1018.0 |
| 20260830151203 | 78 | 314 | 0.0 | 3.0 | 0.00 | 0.00 | 0.00 | 61 | 1017.1 |
| 20260830151054 | 77 | 316 | 2.0 | 3.0 | 0.00 | 0.00 | 0.00 | 55 | 1017.8 |
| 20260830150702 | 78 | 307 | 0.0 | 8.0 | 0.00 | 0.00 | 0.00 | 61 | 1017.1 |
| 20260830150554 | 78 | 282 | 2.0 | 4.0 | 0.00 | 0.00 | 0.00 | 55 | 1017.9 |
| 20260830150203 | 77 | 309 | 0.0 | 1.0 | 0.00 | 0.00 | 0.00 | 62 | 1017.0 |
| 20260830150049 | 78 | 203 | 1.0 | 2.0 | 0.00 | 0.00 | 0.00 | 55 | 1017.7 |
| 20260830145702 | 77 | 230 | 0.0 | 0.0 | 0.00 | 0.00 | 0.00 | 64 | 1017.0 |
| 20260830145549 | 78 | 178 | 1.0 | 2.0 | 0.00 | 0.00 | 0.00 | 57 | 1017.9 |
| 20260830145203 | 77 | 327 | 0.0 | 0.0 | 0.00 | 0.00 | 0.00 | 65 | 1017.1 |
| 20260830145044 | 77 | 150 | 0.0 | 1.0 | 0.00 | 0.00 | 0.00 | 61 | 1018.0 |
| 20260830144702 | 77 | 188 | 0.0 | 0.0 | 0.00 | 0.00 | 0.00 | 66 | 1017.1 |
| 20260830144540 | 77 | 201 | 0.0 | 1.0 | 0.00 | 0.00 | 0.00 | 61 | 1017.9 |
| 20260830144202 | 77 | 169 | 0.0 | 0.0 | 0.00 | 0.00 | 0.00 | 65 | 1017.0 |
| 20260830144036 | 77 | 194 | 1.0 | 2.0 | 0.00 | 0.00 | 0.00 | 59 | 1017.8 |
| 20260830143531 | 77 | 162 | 1.0 | 2.0 | 0.00 | 0.00 | 0.00 | 58 | 1017.8 |
| 20260830143029 | 77 | 134 | 0.0 | 0.0 | 0.00 | 0.00 | 0.00 | 58 | 1017.8 |
| 20260830142703 | 76 | 157 | 0.0 | 0.0 | 0.00 | 0.00 | 0.00 | 64 | 1017.0 |
| 20260830142525 | 77 | 138 | 0.0 | 2.0 | 0.00 | 0.00 | 0.00 | 56 | 1017.8 |
| 20260830142202 | 76 | 194 | 0.0 | 0.0 | 0.00 | 0.00 | 0.00 | 65 | 1017.1 |
| 20260830142020 | 78 | 153 | 1.0 | 1.0 | 0.00 | 0.00 | 0.00 | 56 | 1017.7 |
| 20260830141702 | 75 | 321 | 0.0 | 0.0 | 0.00 | 0.00 | 0.00 | 67 | 1017.1 |
| 20260830141515 | 77 | 249 | 1.0 | 2.0 | 0.00 | 0.00 | 0.00 | 56 | 1017.9 |
| 20260830141202 | 74 | 165 | 0.0 | 0.0 | 0.00 | 0.00 | 0.00 | 68 | 1017.3 |
| 20260830141015 | 77 | 141 | 0.0 | 2.0 | 0.00 | 0.00 | 0.00 | 58 | 1017.8 |
| 20260830140703 | 74 | 186 | 0.0 | 0.0 | 0.00 | 0.00 | 0.00 | 68 | 1017.3 |
| 20260830140515 | 76 | 128 | 1.0 | 2.0 | 0.00 | 0.00 | 0.00 | 59 | 1018.0 |
| 20260830140202 | 73 | 165 | 0.0 | 0.0 | 0.00 | 0.00 | 0.00 | 68 | 1017.4 |
| 20260830140011 | 75 | 136 | 1.0 | 2.0 | 0.00 | 0.00 | 0.00 | 58 | 1018.1 |
| 20260830135703 | 72 | 171 | 0.0 | 0.0 | 0.00 | 0.00 | 0.00 | 69 | 1017.5 |
| 20260830135505 | 75 | 187 | 1.0 | 3.0 | 0.00 | 0.00 | 0.00 | 59 | 1018.3 |
| 20260830135202 | 72 | 182 | 0.0 | 0.0 | 0.00 | 0.00 | 0.00 | 69 | 1017.5 |
| 20260830135000 | 75 | 100 | 1.0 | 2.0 | 0.00 | 0.00 | 0.00 | 57 | 1018.2 |
| 20260830134702 | 71 | 182 | 0.0 | 0.0 | 0.00 | 0.00 | 0.00 | 70 | 1017.6 |
| 20260830134456 | 74 | 118 | 0.0 | 1.0 | 0.00 | 0.00 | 0.00 | 58 | 1018.5 |
| 20260830133951 | 73 | 138 | 0.0 | 1.0 | 0.00 | 0.00 | 0.00 | 61 | 1018.3 |
| 20260830133703 | 70 | 175 | 0.0 | 0.0 | 0.00 | 0.00 | 0.00 | 72 | 1017.5 |
| 20260830133447 | 73 | 137 | 0.0 | 0.0 | 0.00 | 0.00 | 0.00 | 63 | 1018.3 |
| 20260830133203 | 69 | 276 | 0.0 | 0.0 | 0.00 | 0.00 | 0.00 | 73 | 1017.5 |
| 20260830132942 | 73 | 91 | 0.0 | 2.0 | 0.00 | 0.00 | 0.00 | 61 | 1018.0 |
| 20260830132703 | 69 | 161 | 0.0 | 0.0 | 0.00 | 0.00 | 0.00 | 75 | 1017.5 |
| 20260830132439 | 72 | 132 | 0.0 | 1.0 | 0.00 | 0.00 | 0.00 | 62 | 1018.3 |
| 20260830132202 | 68 | 201 | 0.0 | 0.0 | 0.00 | 0.00 | 0.00 | 76 | 1017.6 |
| 20260830131937 | 71 | 138 | 0.0 | 2.0 | 0.00 | 0.00 | 0.00 | 63 | 1018.2 |
| 20260830131703 | 68 | 178 | 0.0 | 0.0 | 0.00 | 0.00 | 0.00 | 78 | 1017.6 |
| 20260830131431 | 71 | 170 | 0.0 | 1.0 | 0.00 | 0.00 | 0.00 | 65 | 1018.2 |
| 20260830130926 | 70 | 160 | 1.0 | 1.0 | 0.00 | 0.00 | 0.00 | 66 | 1018.3 |
| 20260830130702 | 66 | 157 | 0.0 | 0.0 | 0.00 | 0.00 | 0.00 | 83 | 1017.6 |
| 20260830130421 | 71 | 118 | 1.0 | 2.0 | 0.00 | 0.00 | 0.00 | 64 | 1018.5 |
| 20260830130202 | 65 | 156 | 0.0 | 0.0 | 0.00 | 0.00 | 0.00 | 85 | 1017.7 |
| 20260830125920 | 69 | 105 | 0.0 | 1.0 | 0.00 | 0.00 | 0.00 | 67 | 1018.5 |
| 20260830125702 | 64 | 192 | 0.0 | 0.0 | 0.00 | 0.00 | 0.00 | 87 | 1017.9 |
| 20260830125416 | 69 | 117 | 0.0 | 2.0 | 0.00 | 0.00 | 0.00 | 67 | 1018.7 |
| 20260830125203 | 63 | 182 | 0.0 | 0.0 | 0.00 | 0.00 | 0.00 | 88 | 1017.9 |
| 20260830124913 | 67 | 171 | 0.0 | 0.0 | 0.00 | 0.00 | 0.00 | 71 | 1018.7 |
| 20260830124703 | 62 | 134 | 0.0 | 0.0 | 0.00 | 0.00 | 0.00 | 89 | 1017.9 |
| 20260830124409 | 66 | 137 | 0.0 | 0.0 | 0.00 | 0.00 | 0.00 | 74 | 1018.8 |
| 20260830124203 | 62 | 242 | 0.0 | 0.0 | 0.00 | 0.00 | 0.00 | 90 | 1018.0 |
| 20260830123905 | 65 | 143 | 0.0 | 0.0 | 0.00 | 0.00 | 0.00 | 75 | 1018.6 |
| 20260830123703 | 61 | 242 | 0.0 | 0.0 | 0.00 | 0.00 | 0.00 | 90 | 1018.1 |
| 20260830123401 | 65 | 132 | 0.0 | 0.0 | 0.00 | 0.00 | 0.00 | 75 | 1019.0 |
| 20260830123202 | 61 | 242 | 0.0 | 0.0 | 0.00 | 0.00 | 0.00 | 90 | 1018.2 |
| 20260830122859 | 64 | 130 | 0.0 | 0.0 | 0.00 | 0.00 | 0.00 | 77 | 1018.9 |
| 20260830122354 | 64 | 130 | 0.0 | 0.0 | 0.00 | 0.00 | 0.00 | 78 | 1019.0 |
| 20260830122202 | 60 | 242 | 0.0 | 0.0 | 0.00 | 0.00 | 0.00 | 91 | 1018.3 |
| 20260830121849 | 64 | 123 | 0.0 | 0.0 | 0.00 | 0.00 | 0.00 | 79 | 1019.0 |
| 20260830121703 | 60 | 242 | 0.0 | 0.0 | 0.00 | 0.00 | 0.00 | 91 | 1018.2 |
| 20260830121349 | 63 | 132 | 0.0 | 0.0 | 0.00 | 0.00 | 0.00 | 79 | 1018.9 |
| 20260830121202 | 60 | 242 | 0.0 | 0.0 | 0.00 | 0.00 | 0.00 | 91 | 1018.2 |
| 20260830120844 | 63 | 134 | 0.0 | 0.0 | 0.00 | 0.00 | 0.00 | 80 | 1019.0 |
| 20260830120702 | 59 | 242 | 0.0 | 0.0 | 0.00 | 0.00 | 0.00 | 91 | 1018.2 |
| 20260830120339 | 62 | 132 | 0.0 | 0.0 | 0.00 | 0.00 | 0.00 | 81 | 1018.9 |
| 20260830115836 | 62 | 132 | 0.0 | 0.0 | 0.00 | 0.00 | 0.00 | 82 | 1018.9 |
| 20260830115703 | 59 | 242 | 0.0 | 0.0 | 0.00 | 0.00 | 0.00 | 91 | 1018.2 |
| 20260830115332 | 61 | 123 | 0.0 | 0.0 | 0.00 | 0.00 | 0.00 | 84 | 1018.9 |
| 20260830115203 | 58 | 242 | 0.0 | 0.0 | 0.00 | 0.00 | 0.00 | 91 | 1018.2 |
| 20260830114827 | 61 | 143 | 0.0 | 0.0 | 0.00 | 0.00 | 0.00 | 85 | 1019.0 |
| 20260830114703 | 58 | 241 | 0.0 | 0.0 | 0.00 | 0.00 | 0.00 | 91 | 1018.3 |
| 20260830114323 | 60 | 152 | 0.0 | 0.0 | 0.00 | 0.00 | 0.00 | 88 | 1018.9 |
| 20260830114203 | 58 | 242 | 0.0 | 0.0 | 0.00 | 0.00 | 0.00 | 91 | 1018.3 |
| 20260830113818 | 59 | 123 | 0.0 | 0.0 | 0.00 | 0.00 | 0.00 | 89 | 1018.9 |
| 20260830113703 | 58 | 242 | 0.0 | 0.0 | 0.00 | 0.00 | 0.00 | 91 | 1018.2 |
| 20260830113313 | 59 | 123 | 0.0 | 0.0 | 0.00 | 0.00 | 0.00 | 90 | 1019.1 |
| 20260830113203 | 58 | 242 | 0.0 | 0.0 | 0.00 | 0.00 | 0.00 | 91 | 1018.5 |
| 20260830112809 | 58 | 122 | 0.0 | 0.0 | 0.00 | 0.00 | 0.00 | 91 | 1019.2 |
| 20260830112702 | 57 | 242 | 0.0 | 0.0 | 0.00 | 0.00 | 0.00 | 91 | 1018.5 |
| 20260830112306 | 58 | 151 | 0.0 | 0.0 | 0.00 | 0.00 | 0.00 | 91 | 1019.2 |
| 20260830112203 | 57 | 242 | 0.0 | 0.0 | 0.00 | 0.00 | 0.00 | 91 | 1018.5 |
| 20260830111800 | 58 | 151 | 0.0 | 0.0 | 0.00 | 0.00 | 0.00 | 92 | 1019.0 |
| 20260830111703 | 57 | 238 | 0.0 | 0.0 | 0.00 | 0.00 | 0.00 | 91 | 1018.4 |
| 20260830111256 | 57 | 139 | 0.0 | 0.0 | 0.00 | 0.00 | 0.00 | 92 | 1019.0 |
| 20260830111202 | 57 | 239 | 0.0 | 0.0 | 0.00 | 0.00 | 0.00 | 91 | 1018.4 |
| 20260830110755 | 57 | 141 | 0.0 | 0.0 | 0.00 | 0.00 | 0.00 | 92 | 1019.1 |
| 20260830110702 | 57 | 238 | 0.0 | 0.0 | 0.00 | 0.00 | 0.00 | 90 | 1018.5 |
| 20260830110253 | 57 | 141 | 0.0 | 0.0 | 0.00 | 0.00 | 0.00 | 92 | 1019.0 |
| 20260830110203 | 57 | 242 | 0.0 | 0.0 | 0.00 | 0.00 | 0.00 | 91 | 1018.4 |
| 20260830105751 | 57 | 141 | 0.0 | 0.0 | 0.00 | 0.00 | 0.00 | 92 | 1019.0 |
| 20260830105703 | 57 | 242 | 0.0 | 0.0 | 0.00 | 0.00 | 0.00 | 90 | 1018.4 |
| 20260830105247 | 57 | 146 | 0.0 | 0.0 | 0.00 | 0.00 | 0.00 | 92 | 1018.9 |
| 20260830105202 | 57 | 242 | 0.0 | 0.0 | 0.00 | 0.00 | 0.00 | 90 | 1018.2 |
| 20260830104743 | 57 | 133 | 0.0 | 0.0 | 0.00 | 0.00 | 0.00 | 92 | 1018.8 |
| 20260830104702 | 57 | 242 | 0.0 | 0.0 | 0.00 | 0.00 | 0.00 | 90 | 1018.2 |
| 20260830104240 | 57 | 134 | 0.0 | 0.0 | 0.00 | 0.00 | 0.00 | 92 | 1018.9 |
| 20260830104202 | 57 | 242 | 0.0 | 0.0 | 0.00 | 0.00 | 0.00 | 90 | 1018.3 |
| 20260830103739 | 57 | 141 | 0.0 | 0.0 | 0.00 | 0.00 | 0.00 | 92 | 1019.1 |
| 20260830103703 | 57 | 242 | 0.0 | 0.0 | 0.00 | 0.00 | 0.00 | 90 | 1018.3 |
| 20260830103235 | 57 | 147 | 0.0 | 0.0 | 0.00 | 0.00 | 0.00 | 92 | 1018.9 |
| 20260830103202 | 57 | 242 | 0.0 | 0.0 | 0.00 | 0.00 | 0.00 | 90 | 1018.2 |
| 20260830102733 | 57 | 136 | 0.0 | 0.0 | 0.00 | 0.00 | 0.00 | 92 | 1018.7 |
| 20260830102230 | 57 | 136 | 0.0 | 0.0 | 0.00 | 0.00 | 0.00 | 91 | 1018.9 |
| 20260830102202 | 57 | 242 | 0.0 | 0.0 | 0.00 | 0.00 | 0.00 | 90 | 1018.2 |
| 20260830101726 | 57 | 136 | 0.0 | 0.0 | 0.00 | 0.00 | 0.00 | 91 | 1019.0 |
| 20260830101703 | 57 | 242 | 0.0 | 0.0 | 0.00 | 0.00 | 0.00 | 90 | 1018.2 |
| 20260830101221 | 57 | 136 | 0.0 | 0.0 | 0.00 | 0.00 | 0.00 | 91 | 1019.0 |
| 20260830101203 | 57 | 242 | 0.0 | 0.0 | 0.00 | 0.00 | 0.00 | 90 | 1018.3 |
| 20260830100714 | 57 | 137 | 0.0 | 0.0 | 0.00 | 0.00 | 0.00 | 91 | 1019.1 |
| 20260830100702 | 57 | 242 | 0.0 | 0.0 | 0.00 | 0.00 | 0.00 | 90 | 1018.4 |
| 20260830100214 | 57 | 119 | 0.0 | 0.0 | 0.00 | 0.00 | 0.00 | 91 | 1018.9 |
| 20260830100203 | 57 | 242 | 0.0 | 0.0 | 0.00 | 0.00 | 0.00 | 90 | 1018.3 |
| 20260830095713 | 57 | 119 | 0.0 | 0.0 | 0.00 | 0.00 | 0.00 | 91 | 1019.1 |
| 20260830095702 | 57 | 242 | 0.0 | 0.0 | 0.00 | 0.00 | 0.00 | 90 | 1018.3 |
| 20260830095209 | 57 | 119 | 0.0 | 0.0 | 0.00 | 0.00 | 0.00 | 90 | 1018.9 |
| 20260830095202 | 57 | 242 | 0.0 | 0.0 | 0.00 | 0.00 | 0.00 | 90 | 1018.2 |
| 20260830094705 | 57 | 119 | 0.0 | 0.0 | 0.00 | 0.00 | 0.00 | 90 | 1019.0 |
| 20260830094702 | 57 | 242 | 0.0 | 0.0 | 0.00 | 0.00 | 0.00 | 90 | 1018.2 |
| 20260830094200 | 57 | 137 | 0.0 | 0.0 | 0.00 | 0.00 | 0.00 | 90 | 1019.0 |
| 20260830093703 | 57 | 242 | 0.0 | 0.0 | 0.00 | 0.00 | 0.00 | 90 | 1018.2 |
| 20260830093655 | 57 | 166 | 0.0 | 0.0 | 0.00 | 0.00 | 0.00 | 90 | 1018.9 |
| 20260830093202 | 57 | 242 | 0.0 | 0.0 | 0.00 | 0.00 | 0.00 | 90 | 1018.2 |
| 20260830093152 | 57 | 138 | 0.0 | 0.0 | 0.00 | 0.00 | 0.00 | 90 | 1019.0 |
| 20260830092703 | 57 | 242 | 0.0 | 0.0 | 0.00 | 0.00 | 0.00 | 90 | 1018.2 |
| 20260830092651 | 57 | 139 | 0.0 | 0.0 | 0.00 | 0.00 | 0.00 | 90 | 1018.8 |
| 20260830092202 | 57 | 242 | 0.0 | 0.0 | 0.00 | 0.00 | 0.00 | 90 | 1018.3 |
| 20260830092149 | 57 | 178 | 0.0 | 0.0 | 0.00 | 0.00 | 0.00 | 91 | 1019.1 |
| 20260830091703 | 57 | 242 | 0.0 | 0.0 | 0.00 | 0.00 | 0.00 | 90 | 1018.3 |
| 20260830091649 | 57 | 148 | 0.0 | 0.0 | 0.00 | 0.00 | 0.00 | 91 | 1019.1 |
| 20260830091148 | 57 | 137 | 0.0 | 0.0 | 0.00 | 0.00 | 0.00 | 91 | 1019.1 |
| 20260830090703 | 57 | 242 | 0.0 | 0.0 | 0.00 | 0.00 | 0.00 | 90 | 1018.4 |
| 20260830090643 | 57 | 137 | 0.0 | 0.0 | 0.00 | 0.00 | 0.00 | 91 | 1019.1 |
| 20260830090203 | 57 | 242 | 0.0 | 0.0 | 0.00 | 0.00 | 0.00 | 90 | 1018.4 |
| 20260830090139 | 57 | 137 | 0.0 | 0.0 | 0.00 | 0.00 | 0.00 | 91 | 1019.1 |
| 20260830085702 | 57 | 242 | 0.0 | 0.0 | 0.00 | 0.00 | 0.00 | 90 | 1018.6 |
| 20260830085638 | 57 | 137 | 0.0 | 0.0 | 0.00 | 0.00 | 0.00 | 91 | 1019.3 |
| 20260830085134 | 57 | 145 | 0.0 | 0.0 | 0.00 | 0.00 | 0.00 | 91 | 1019.4 |
| 20260830084702 | 57 | 242 | 0.0 | 0.0 | 0.00 | 0.00 | 0.00 | 90 | 1018.7 |
| 20260830084629 | 57 | 145 | 0.0 | 0.0 | 0.00 | 0.00 | 0.00 | 91 | 1019.3 |
| 20260830084202 | 57 | 242 | 0.0 | 0.0 | 0.00 | 0.00 | 0.00 | 90 | 1018.7 |
| 20260830084125 | 57 | 154 | 0.0 | 0.0 | 0.00 | 0.00 | 0.00 | 91 | 1019.4 |
| 20260830083702 | 57 | 242 | 0.0 | 0.0 | 0.00 | 0.00 | 0.00 | 89 | 1018.7 |
| 20260830083620 | 57 | 119 | 0.0 | 0.0 | 0.00 | 0.00 | 0.00 | 91 | 1019.3 |
| 20260830083203 | 56 | 242 | 0.0 | 0.0 | 0.00 | 0.00 | 0.00 | 90 | 1018.8 |
| 20260830083120 | 57 | 136 | 0.0 | 0.0 | 0.00 | 0.00 | 0.00 | 91 | 1019.3 |
| 20260830082703 | 56 | 242 | 0.0 | 0.0 | 0.00 | 0.00 | 0.00 | 89 | 1018.7 |
| 20260830082615 | 57 | 139 | 0.0 | 0.0 | 0.00 | 0.00 | 0.00 | 91 | 1019.2 |
| 20260830082202 | 56 | 242 | 0.0 | 0.0 | 0.00 | 0.00 | 0.00 | 89 | 1018.7 |
| 20260830082111 | 57 | 139 | 0.0 | 0.0 | 0.00 | 0.00 | 0.00 | 91 | 1019.5 |
| 20260830081702 | 56 | 242 | 0.0 | 0.0 | 0.00 | 0.00 | 0.00 | 89 | 1018.7 |
| 20260830081607 | 56 | 139 | 0.0 | 0.0 | 0.00 | 0.00 | 0.00 | 91 | 1019.5 |
| 20260830081105 | 56 | 139 | 0.0 | 0.0 | 0.00 | 0.00 | 0.00 | 91 | 1019.4 |
| 20260830080703 | 56 | 242 | 0.0 | 0.0 | 0.00 | 0.00 | 0.00 | 89 | 1018.7 |
| 20260830080601 | 56 | 139 | 0.0 | 0.0 | 0.00 | 0.00 | 0.00 | 91 | 1019.5 |
| 20260830080203 | 56 | 242 | 0.0 | 0.0 | 0.00 | 0.00 | 0.00 | 89 | 1018.7 |
| 20260830080056 | 56 | 139 | 0.0 | 0.0 | 0.00 | 0.00 | 0.00 | 91 | 1019.3 |
| 20260830075702 | 56 | 242 | 0.0 | 0.0 | 0.00 | 0.00 | 0.00 | 89 | 1018.7 |
| 20260830075551 | 56 | 150 | 0.0 | 0.0 | 0.00 | 0.00 | 0.00 | 91 | 1019.4 |
| 20260830075203 | 56 | 242 | 0.0 | 0.0 | 0.00 | 0.00 | 0.00 | 89 | 1018.7 |
| 20260830075050 | 57 | 139 | 0.0 | 0.0 | 0.00 | 0.00 | 0.00 | 91 | 1019.3 |
| 20260830074703 | 56 | 242 | 0.0 | 0.0 | 0.00 | 0.00 | 0.00 | 89 | 1018.7 |
| 20260830074546 | 57 | 139 | 0.0 | 0.0 | 0.00 | 0.00 | 0.00 | 91 | 1019.4 |
| 20260830074203 | 56 | 242 | 0.0 | 0.0 | 0.00 | 0.00 | 0.00 | 89 | 1018.7 |
| 20260830074042 | 56 | 142 | 0.0 | 0.0 | 0.00 | 0.00 | 0.00 | 90 | 1019.5 |
| 20260830073702 | 56 | 242 | 0.0 | 0.0 | 0.00 | 0.00 | 0.00 | 89 | 1018.7 |
| 20260830073537 | 56 | 146 | 0.0 | 0.0 | 0.00 | 0.00 | 0.00 | 90 | 1019.3 |
| 20260830073203 | 56 | 242 | 0.0 | 0.0 | 0.00 | 0.00 | 0.00 | 89 | 1018.7 |
| 20260830073033 | 56 | 147 | 0.0 | 0.0 | 0.00 | 0.00 | 0.00 | 91 | 1019.5 |
| 20260830072702 | 56 | 242 | 0.0 | 0.0 | 0.00 | 0.00 | 0.00 | 89 | 1018.7 |
| 20260830072529 | 56 | 123 | 0.0 | 0.0 | 0.00 | 0.00 | 0.00 | 90 | 1019.3 |
| 20260830072203 | 56 | 242 | 0.0 | 0.0 | 0.00 | 0.00 | 0.00 | 89 | 1018.6 |
| 20260830072028 | 56 | 123 | 0.0 | 0.0 | 0.00 | 0.00 | 0.00 | 91 | 1019.3 |
| 20260830071702 | 56 | 242 | 0.0 | 0.0 | 0.00 | 0.00 | 0.00 | 89 | 1018.6 |
| 20260830071524 | 56 | 123 | 0.0 | 0.0 | 0.00 | 0.00 | 0.00 | 91 | 1019.3 |
| 20260830071202 | 56 | 242 | 0.0 | 0.0 | 0.00 | 0.00 | 0.00 | 88 | 1018.6 |
| 20260830071021 | 56 | 204 | 0.0 | 0.0 | 0.00 | 0.00 | 0.00 | 91 | 1019.3 |
| 20260830070702 | 56 | 242 | 0.0 | 0.0 | 0.00 | 0.00 | 0.00 | 88 | 1018.5 |
| 20260830070517 | 56 | 136 | 0.0 | 0.0 | 0.00 | 0.00 | 0.00 | 91 | 1019.2 |
| 20260830070203 | 56 | 242 | 0.0 | 0.0 | 0.00 | 0.00 | 0.00 | 88 | 1018.6 |
| 20260830070016 | 56 | 139 | 0.0 | 0.0 | 0.00 | 0.00 | 0.00 | 91 | 1019.2 |
| 20260830065703 | 56 | 242 | 0.0 | 0.0 | 0.00 | 0.00 | 0.00 | 88 | 1018.5 |
| 20260830065515 | 56 | 119 | 0.0 | 0.0 | 0.00 | 0.00 | 0.00 | 91 | 1019.4 |
| 20260830065014 | 56 | 118 | 0.0 | 0.0 | 0.00 | 0.00 | 0.00 | 91 | 1019.2 |
| 20260830064703 | 56 | 242 | 0.0 | 0.0 | 0.00 | 0.00 | 0.00 | 88 | 1018.6 |
| 20260830064509 | 56 | 118 | 0.0 | 0.0 | 0.00 | 0.00 | 0.00 | 91 | 1019.3 |
| 20260830064203 | 56 | 242 | 0.0 | 0.0 | 0.00 | 0.00 | 0.00 | 88 | 1018.6 |
| 20260830064004 | 55 | 118 | 0.0 | 0.0 | 0.00 | 0.00 | 0.00 | 91 | 1019.2 |
| 20260830063703 | 56 | 242 | 0.0 | 0.0 | 0.00 | 0.00 | 0.00 | 88 | 1018.5 |
| 20260830063504 | 55 | 118 | 0.0 | 0.0 | 0.00 | 0.00 | 0.00 | 92 | 1019.4 |
| 20260830063202 | 56 | 242 | 0.0 | 0.0 | 0.00 | 0.00 | 0.00 | 87 | 1018.6 |
| 20260830063003 | 55 | 132 | 0.0 | 0.0 | 0.00 | 0.00 | 0.00 | 92 | 1019.3 |
| 20260830062703 | 56 | 242 | 0.0 | 0.0 | 0.00 | 0.00 | 0.00 | 87 | 1018.6 |
| 20260830062503 | 55 | 133 | 0.0 | 0.0 | 0.00 | 0.00 | 0.00 | 91 | 1019.3 |
| 20260830062203 | 56 | 242 | 0.0 | 0.0 | 0.00 | 0.00 | 0.00 | 87 | 1018.7 |
| 20260830061957 | 55 | 141 | 0.0 | 0.0 | 0.00 | 0.00 | 0.00 | 91 | 1019.3 |
| 20260830061452 | 55 | 141 | 0.0 | 0.0 | 0.00 | 0.00 | 0.00 | 91 | 1019.6 |
| 20260830061202 | 56 | 242 | 0.0 | 0.0 | 0.00 | 0.00 | 0.00 | 87 | 1018.7 |
| 20260830060949 | 55 | 141 | 0.0 | 0.0 | 0.00 | 0.00 | 0.00 | 91 | 1019.5 |
| 20260830060702 | 56 | 242 | 0.0 | 0.0 | 0.00 | 0.00 | 0.00 | 87 | 1018.7 |
| 20260830060445 | 55 | 141 | 0.0 | 0.0 | 0.00 | 0.00 | 0.00 | 91 | 1019.7 |
| 20260830060203 | 56 | 242 | 0.0 | 0.0 | 0.00 | 0.00 | 0.00 | 87 | 1018.9 |
| 20260830055940 | 56 | 141 | 0.0 | 0.0 | 0.00 | 0.00 | 0.00 | 91 | 1019.7 |
| 20260830055702 | 56 | 242 | 0.0 | 0.0 | 0.00 | 0.00 | 0.00 | 86 | 1018.9 |
| 20260830055436 | 55 | 154 | 0.0 | 0.0 | 0.00 | 0.00 | 0.00 | 91 | 1019.6 |
| 20260830055203 | 56 | 242 | 0.0 | 0.0 | 0.00 | 0.00 | 0.00 | 86 | 1018.9 |
| 20260830054931 | 55 | 137 | 0.0 | 0.0 | 0.00 | 0.00 | 0.00 | 91 | 1019.7 |
| 20260830054703 | 56 | 242 | 0.0 | 0.0 | 0.00 | 0.00 | 0.00 | 86 | 1018.9 |
| 20260830054427 | 55 | 137 | 0.0 | 0.0 | 0.00 | 0.00 | 0.00 | 91 | 1019.4 |
| 20260830054203 | 56 | 242 | 0.0 | 0.0 | 0.00 | 0.00 | 0.00 | 86 | 1018.9 |
| 20260830053923 | 55 | 211 | 0.0 | 0.0 | 0.00 | 0.00 | 0.00 | 91 | 1019.6 |
| 20260830053703 | 56 | 242 | 0.0 | 0.0 | 0.00 | 0.00 | 0.00 | 86 | 1018.9 |
| 20260830053418 | 55 | 133 | 0.0 | 0.0 | 0.00 | 0.00 | 0.00 | 91 | 1019.6 |
| 20260830053202 | 56 | 242 | 0.0 | 0.0 | 0.00 | 0.00 | 0.00 | 85 | 1018.9 |
| 20260830052917 | 55 | 133 | 0.0 | 0.0 | 0.00 | 0.00 | 0.00 | 91 | 1019.7 |
| 20260830052702 | 56 | 242 | 0.0 | 0.0 | 0.00 | 0.00 | 0.00 | 85 | 1019.0 |
| 20260830052413 | 55 | 133 | 0.0 | 0.0 | 0.00 | 0.00 | 0.00 | 91 | 1019.9 |
| 20260830052203 | 56 | 242 | 0.0 | 0.0 | 0.00 | 0.00 | 0.00 | 85 | 1019.1 |
| 20260830051908 | 55 | 133 | 0.0 | 0.0 | 0.00 | 0.00 | 0.00 | 91 | 1019.9 |
| 20260830051403 | 55 | 133 | 0.0 | 0.0 | 0.00 | 0.00 | 0.00 | 91 | 1020.0 |
| 20260830051202 | 56 | 242 | 0.0 | 0.0 | 0.00 | 0.00 | 0.00 | 84 | 1019.1 |
| 20260830050902 | 55 | 142 | 0.0 | 0.0 | 0.00 | 0.00 | 0.00 | 91 | 1019.8 |
| 20260830050702 | 56 | 242 | 0.0 | 0.0 | 0.00 | 0.00 | 0.00 | 84 | 1019.0 |
| 20260830050357 | 55 | 141 | 0.0 | 0.0 | 0.00 | 0.00 | 0.00 | 91 | 1019.9 |
| 20260830050203 | 56 | 242 | 0.0 | 0.0 | 0.00 | 0.00 | 0.00 | 84 | 1019.0 |
| 20260830045856 | 55 | 124 | 0.0 | 0.0 | 0.00 | 0.00 | 0.00 | 91 | 1019.5 |
| 20260830045702 | 56 | 242 | 0.0 | 0.0 | 0.00 | 0.00 | 0.00 | 84 | 1018.9 |
| 20260830045351 | 55 | 124 | 0.0 | 0.0 | 0.00 | 0.00 | 0.00 | 91 | 1019.7 |
| 20260830044850 | 55 | 124 | 0.0 | 0.0 | 0.00 | 0.00 | 0.00 | 90 | 1019.6 |
| 20260830044702 | 56 | 242 | 0.0 | 0.0 | 0.00 | 0.00 | 0.00 | 83 | 1018.9 |
| 20260830044346 | 55 | 135 | 0.0 | 0.0 | 0.00 | 0.00 | 0.00 | 90 | 1019.6 |
| 20260830044202 | 56 | 242 | 0.0 | 0.0 | 0.00 | 0.00 | 0.00 | 83 | 1018.9 |
| 20260830043840 | 55 | 135 | 0.0 | 0.0 | 0.00 | 0.00 | 0.00 | 90 | 1019.6 |
| 20260830043702 | 57 | 242 | 0.0 | 0.0 | 0.00 | 0.00 | 0.00 | 83 | 1019.0 |
| 20260830043335 | 55 | 135 | 0.0 | 0.0 | 0.00 | 0.00 | 0.00 | 90 | 1019.7 |
| 20260830043203 | 57 | 242 | 0.0 | 0.0 | 0.00 | 0.00 | 0.00 | 83 | 1019.1 |
| 20260830042833 | 55 | 133 | 0.0 | 0.0 | 0.00 | 0.00 | 0.00 | 89 | 1019.7 |
| 20260830042703 | 57 | 242 | 0.0 | 0.0 | 0.00 | 0.00 | 0.00 | 83 | 1019.0 |
| 20260830042328 | 55 | 133 | 0.0 | 0.0 | 0.00 | 0.00 | 0.00 | 89 | 1019.6 |
| 20260830041827 | 56 | 133 | 0.0 | 0.0 | 0.00 | 0.00 | 0.00 | 89 | 1019.6 |
| 20260830041702 | 57 | 242 | 0.0 | 0.0 | 0.00 | 0.00 | 0.00 | 83 | 1018.9 |
| 20260830041321 | 56 | 133 | 0.0 | 0.0 | 0.00 | 0.00 | 0.00 | 89 | 1019.6 |
| 20260830041203 | 57 | 242 | 0.0 | 0.0 | 0.00 | 0.00 | 0.00 | 83 | 1018.9 |
| 20260830040816 | 56 | 122 | 0.0 | 0.0 | 0.00 | 0.00 | 0.00 | 89 | 1019.6 |
| 20260830040702 | 57 | 242 | 0.0 | 0.0 | 0.00 | 0.00 | 0.00 | 82 | 1018.8 |
| 20260830040312 | 56 | 146 | 0.0 | 0.0 | 0.00 | 0.00 | 0.00 | 88 | 1019.7 |
| 20260830040203 | 58 | 242 | 0.0 | 0.0 | 0.00 | 0.00 | 0.00 | 82 | 1018.9 |
| 20260830035810 | 56 | 131 | 0.0 | 0.0 | 0.00 | 0.00 | 0.00 | 89 | 1019.6 |
| 20260830035703 | 58 | 242 | 0.0 | 0.0 | 0.00 | 0.00 | 0.00 | 82 | 1018.8 |
| 20260830035306 | 56 | 126 | 0.0 | 0.0 | 0.00 | 0.00 | 0.00 | 88 | 1019.7 |
| 20260830034801 | 56 | 133 | 0.0 | 0.0 | 0.00 | 0.00 | 0.00 | 88 | 1019.7 |
| 20260830034702 | 58 | 242 | 0.0 | 0.0 | 0.00 | 0.00 | 0.00 | 81 | 1018.9 |
| 20260830034300 | 56 | 132 | 0.0 | 0.0 | 0.00 | 0.00 | 0.00 | 87 | 1019.8 |
| 20260830034203 | 58 | 242 | 0.0 | 0.0 | 0.00 | 0.00 | 0.00 | 81 | 1018.8 |
| 20260830033756 | 56 | 132 | 0.0 | 0.0 | 0.00 | 0.00 | 0.00 | 87 | 1019.8 |
| 20260830033702 | 58 | 242 | 0.0 | 0.0 | 0.00 | 0.00 | 0.00 | 81 | 1019.0 |
| 20260830033255 | 57 | 132 | 0.0 | 0.0 | 0.00 | 0.00 | 0.00 | 87 | 1019.7 |
| 20260830033202 | 58 | 242 | 0.0 | 0.0 | 0.00 | 0.00 | 0.00 | 81 | 1018.9 |
| 20260830032751 | 57 | 132 | 0.0 | 0.0 | 0.00 | 0.00 | 0.00 | 87 | 1019.8 |
| 20260830032703 | 59 | 242 | 0.0 | 0.0 | 0.00 | 0.00 | 0.00 | 80 | 1019.0 |
| 20260830032244 | 57 | 138 | 0.0 | 0.0 | 0.00 | 0.00 | 0.00 | 86 | 1019.9 |
| 20260830032203 | 59 | 242 | 0.0 | 0.0 | 0.00 | 0.00 | 0.00 | 80 | 1019.0 |
| 20260830031740 | 57 | 139 | 0.0 | 0.0 | 0.00 | 0.00 | 0.00 | 86 | 1019.6 |
| 20260830031703 | 59 | 242 | 0.0 | 0.0 | 0.00 | 0.00 | 0.00 | 80 | 1019.0 |
| 20260830031235 | 57 | 131 | 0.0 | 0.0 | 0.00 | 0.00 | 0.00 | 87 | 1019.8 |
| 20260830031203 | 59 | 242 | 0.0 | 0.0 | 0.00 | 0.00 | 0.00 | 79 | 1019.0 |
| 20260830030731 | 57 | 130 | 0.0 | 0.0 | 0.00 | 0.00 | 0.00 | 87 | 1020.0 |
| 20260830030703 | 59 | 242 | 0.0 | 0.0 | 0.00 | 0.00 | 0.00 | 79 | 1019.0 |
| 20260830030227 | 57 | 131 | 0.0 | 0.0 | 0.00 | 0.00 | 0.00 | 86 | 1020.0 |
| 20260830030203 | 59 | 242 | 0.0 | 0.0 | 0.00 | 0.00 | 0.00 | 78 | 1019.1 |
| 20260830025726 | 57 | 133 | 0.0 | 0.0 | 0.00 | 0.00 | 0.00 | 86 | 1019.8 |
| 20260830025703 | 60 | 242 | 0.0 | 0.0 | 0.00 | 0.00 | 0.00 | 77 | 1019.1 |
| 20260830025225 | 57 | 133 | 0.0 | 0.0 | 0.00 | 0.00 | 0.00 | 85 | 1019.9 |
| 20260830025202 | 60 | 242 | 0.0 | 0.0 | 0.00 | 0.00 | 0.00 | 77 | 1019.1 |
| 20260830024720 | 58 | 133 | 0.0 | 0.0 | 0.00 | 0.00 | 0.00 | 84 | 1019.8 |
| 20260830024703 | 60 | 242 | 0.0 | 0.0 | 0.00 | 0.00 | 0.00 | 77 | 1019.1 |
| 20260830024215 | 58 | 133 | 0.0 | 0.0 | 0.00 | 0.00 | 0.00 | 83 | 1019.9 |
| 20260830024203 | 60 | 242 | 0.0 | 0.0 | 0.00 | 0.00 | 0.00 | 77 | 1019.1 |
| 20260830023712 | 58 | 119 | 0.0 | 0.0 | 0.00 | 0.00 | 0.00 | 84 | 1020.1 |
| 20260830023703 | 60 | 242 | 0.0 | 0.0 | 0.00 | 0.00 | 0.00 | 76 | 1019.1 |
| 20260830023211 | 58 | 138 | 0.0 | 0.0 | 0.00 | 0.00 | 0.00 | 83 | 1019.9 |
| 20260830023202 | 61 | 242 | 0.0 | 0.0 | 0.00 | 0.00 | 0.00 | 76 | 1019.1 |
| 20260830022711 | 59 | 105 | 0.0 | 0.0 | 0.00 | 0.00 | 0.00 | 83 | 1020.0 |
| 20260830022703 | 61 | 242 | 0.0 | 0.0 | 0.00 | 0.00 | 0.00 | 75 | 1019.2 |
| 20260830022207 | 59 | 146 | 0.0 | 0.0 | 0.00 | 0.00 | 0.00 | 83 | 1020.0 |
| 20260830022203 | 61 | 242 | 0.0 | 0.0 | 0.00 | 0.00 | 0.00 | 75 | 1019.2 |
| 20260830021707 | 59 | 138 | 0.0 | 0.0 | 0.00 | 0.00 | 0.00 | 82 | 1020.0 |
| 20260830021202 | 59 | 137 | 0.0 | 0.0 | 0.00 | 0.00 | 0.00 | 82 | 1019.8 |
| 20260830020703 | 61 | 242 | 0.0 | 0.0 | 0.00 | 0.00 | 0.00 | 74 | 1019.2 |
| 20260830020701 | 59 | 121 | 0.0 | 0.0 | 0.00 | 0.00 | 0.00 | 81 | 1020.0 |
| 20260830020202 | 62 | 242 | 0.0 | 0.0 | 0.00 | 0.00 | 0.00 | 74 | 1019.0 |
| 20260830020156 | 59 | 126 | 0.0 | 0.0 | 0.00 | 0.00 | 0.00 | 81 | 1020.0 |
| 20260830015702 | 62 | 242 | 0.0 | 0.0 | 0.00 | 0.00 | 0.00 | 73 | 1018.9 |
| 20260830015655 | 60 | 137 | 0.0 | 0.0 | 0.00 | 0.00 | 0.00 | 80 | 1019.8 |